Havre St Pierre, Quebec

1:35 PM EST on December 07, 2016 (GMT -0500)
Havre Saint-Pierre

Weather History for CYGV - February, 2013

Change the Weather History Date:

Saturday, February 9, 2013

  Actual Average Record
Temperature  
Mean Temperature 2 °F -  
Max Temperature 15 °F 15 °F 26 °F (2012)
Min Temperature -11 °F -2 °F -29 °F (2015)
Degree Days  
Heating Degree Days 63    
Moisture  
Dew Point -8 °F    
Average Humidity 57    
Maximum Humidity 77    
Minimum Humidity 45    
Precipitation  
Precipitation 0.00 in - - ()
Sea Level Pressure  
Sea Level Pressure 30.34 in    
Wind  
Wind Speed 9 mph ()    
Max Wind Speed 17 mph    
Max Gust Speed 23 mph    
Visibility 9.0 miles    
Events      
Averages and records for this station are not official NWS values.
T = Trace of Precipitation, MM = Missing Value Source: Averaged Metar Reports

Daily Weather History Graph

Daily Weather History Graph

Search for Another Location

Airport or City:

Trip Planner

Search our weather history database for the weather conditions in past years. The results will help you decide how hot, cold, wet, or windy it might be!

Date:

Astronomy

Feb. 09, 2013 Rise Set
Actual Time 6:35 AM EST 4:22 PM EST
Civil Twilight 6:01 AM EST 4:56 PM EST
Nautical Twilight 5:23 AM EST 5:34 PM EST
Astronomical Twilight 4:45 AM EST 6:12 PM EST
Moon 5:43 AM EST (2/9) 4:03 PM EST (2/9)
Length of Visible Light 10h 54m
Length of Day
9h 46m
Waning Crescent, 0% of the Moon is Illuminated
Feb 9
Waning Crescent
Feb 10
New
Feb 17
First Quarter
Feb 25
Full
Mar 4
Last Quarter

Hourly Weather History & Observations

Time (EST) Temp. Windchill Dew Point Humidity Pressure Visibility Wind Dir Wind Speed Gust Speed Precip Events Conditions
12:00 AM -5.8 °F -21.2 °F -14.8 °F 65% 30.51 in 9.0 mi North 8.1 mph - N/A   Clear
1:00 AM -5.8 °F -18.4 °F -13.0 °F 71% 30.50 in 9.0 mi NNE 5.8 mph - N/A   Clear
2:00 AM -9.4 °F - -16.6 °F 71% 30.49 in 9.0 mi Calm Calm - N/A   Clear
3:00 AM -11.2 °F -20.6 °F -18.4 °F 70% 30.48 in 9.0 mi ENE 3.5 mph - N/A   Clear
4:00 AM -9.4 °F -20.9 °F -14.8 °F 77% 30.46 in 9.0 mi NNE 4.6 mph - N/A   Clear
5:00 AM -11.2 °F - -18.4 °F 70% 30.46 in 9.0 mi Variable 2.3 mph - N/A   Scattered Clouds
6:00 AM -7.6 °F -25.7 °F -14.8 °F 71% 30.43 in 9.0 mi NNE 10.4 mph - N/A   Clear
7:00 AM -0.4 °F -20.5 °F -11.2 °F 60% 30.44 in 9.0 mi NNE 16.1 mph - N/A   Clear
8:00 AM 1.4 °F -15.3 °F -11.2 °F 56% 30.45 in 9.0 mi NE 11.5 mph - N/A   Clear
9:00 AM 3.2 °F -15.3 °F -9.4 °F 56% 30.44 in 9.0 mi NE 15.0 mph - N/A   Clear
10:00 AM 5.0 °F -11.6 °F -7.6 °F 56% 30.43 in 9.0 mi ENE 12.7 mph - N/A   Clear
11:00 AM 8.6 °F -8.9 °F -4.0 °F 57% 30.38 in 9.0 mi NE 16.1 mph - N/A   Clear
12:00 PM 12.2 °F -4.8 °F -4.0 °F 48% 30.32 in 9.0 mi NNE 17.3 mph - N/A   Clear
1:00 PM 14.0 °F -2.0 °F -2.2 °F 49% 30.27 in 9.0 mi NNE 16.1 mph - N/A   Clear
2:00 PM 14.0 °F -0.8 °F -2.2 °F 49% 30.27 in 9.0 mi NNE 13.8 mph - N/A   Clear
3:00 PM 15.8 °F 4.2 °F -0.4 °F 49% 30.26 in 9.0 mi NNE 9.2 mph - N/A   Clear
4:00 PM 14.0 °F 2.9 °F -0.4 °F 53% 30.25 in 9.0 mi NNE 8.1 mph - N/A   Overcast
5:00 PM 14.0 °F 0.5 °F -0.4 °F 53% 30.23 in 9.0 mi NNE 11.5 mph - N/A   Overcast
6:00 PM 14.0 °F -1.4 °F -2.2 °F 49% 30.23 in 9.0 mi NNE 15.0 mph - N/A   Overcast
7:00 PM 12.2 °F -3.7 °F -4.0 °F 48% 30.21 in 9.0 mi NNE 15.0 mph 23.0 mph N/A   Overcast
8:00 PM 12.2 °F -3.7 °F -4.0 °F 48% 30.20 in 9.0 mi NNE 15.0 mph 21.9 mph N/A   Overcast
9:00 PM 12.2 °F -1.8 °F -4.0 °F 48% 30.17 in 9.0 mi NNE 11.5 mph 17.3 mph N/A   Overcast
10:00 PM 14.0 °F -2.5 °F -4.0 °F 45% 30.15 in 9.0 mi NNE 17.3 mph - N/A   Scattered Clouds
11:00 PM 14.0 °F -1.4 °F -4.0 °F 45% 30.13 in 9.0 mi North 15.0 mph 23.0 mph N/A   Overcast